www.pogodaiklimat.ru

Погода и климат >> Архив погоды >> Франция >> Л’Иль-Рус


ПОГОДА в Л’Иль-Русе

  • Прогноз погоды в Л’Иль-Русе
  • Монитор погоды в Л’Иль-Русе

АРХИВ ПОГОДЫ в Л’Иль-Русе

Время (UTC), дата Ветер
(напр.,м/с)
 
Видим.   Явления Облачность Т
(С)
Тd
(С)
f
(%)
Тe
(С)
Тes
(С)
Комфортность P
(гПа)
Po
(гПа)
Тmin
(С)
Tmax
(С)
R
(мм)
R24
(мм)
S
(см)
13 10.09 З 3-3
{3}
н/о н/о +23.2 +15.8 63 +28 +28 душно 1011.1 994.5
14 10.09 З 2-2
{4}
н/о {дождь} н/о +23.6 +15.9 62 +27 +27 жарко 1011.1 994.5 0.0
15 10.09 З 1-1
{3}
н/о н/о +25.0 +14.8 53 +28 +28 жарко 1010.9 994.4 0.0
16 10.09 В 2-4
{4}
н/о н/о +23.7 +16.0 62 +27 +27 жарко 1011.0 994.4
17 10.09 В 4-6
{6}
н/о н/о +23.4 +14.4 57 +27 +27 душно 1011.1 994.5
18 10.09 В 4
{10}
20 км {дождь} 8/4 1380 м
[Cu Sc Cs]
+22.5 +14.3 60 +26 +26 жарко 1011.4 994.7 +19.6 +26.4
19 10.09 В 5-7
{7}
н/о н/о +21.8 +14.7 64 +25 +25 комфорт 1012.1 995.4
20 10.09 В 4-6
{7}
н/о н/о +22.0 +14.4 62 +25 +25 комфорт 1012.6 995.9
21 10.09 В 7-9
{10}
н/о н/о +22.4 +14.3 60 +26 +26 жарко 1012.3 995.6
22 10.09 В 5-7
{9}
н/о н/о +22.1 +14.5 62 +25 +25 комфорт 1012.7 996.0
23 10.09 В 7-9
{10}
н/о н/о +21.3 +15.8 71 +25 +25 комфорт 1013.0 996.3
00 11.09 ЮВ 3-6
{8}
н/о н/о +22.1 +12.9 56 +25 +25 комфорт 1013.9 997.2
01 11.09 В 4-7
{7}
н/о н/о +23.0 +10.8 46 +25 +25 комфорт 1014.0 997.3
02 11.09 В 6-8
{8}
н/о н/о +21.0 +14.9 68 +24 +24 комфорт 1014.0 997.2
03 11.09 В 3-4
{8}
20 км ясно +20.8 +14.2 66 +24 +24 комфорт 1015.0 998.2
04 11.09 В 3-4
{5}
н/о н/о +20.5 +12.7 61 +23 +23 комфорт 1015.3 998.4
05 11.09 В 2-3
{4}
н/о н/о +20.7 +12.1 58 +24 +24 комфорт 1015.7 998.8
06 11.09 В 4
{9}
н/о н/о +20.6 +14.7 69 +24 +24 комфорт 1016.1 999.3 +20.5 +23.2
07 11.09 В 4-5
{6}
н/о н/о +22.0 +15.4 66 +26 +26 душно 1016.6 999.8
08 11.09 В 5-6
{7}
н/о н/о +24.3 +14.1 53 +27 +27 жарко 1016.8 1000.1
09 11.09 В 5-7
{7}
30 км 1/0
[Ci fib]
+25.9 +15.9 54 +29 +33 душно 1017.1 1000.5
10 11.09 В 4-7
{7}
н/о н/о +27.9 +11.9 37 +29 +29 жарко 1017.3 1000.8
11 11.09 СВ 5-7
{7}
н/о н/о +24.1 +16.9 64 +28 +28 душно 1017.8 1001.1
12 11.09 СВ 5-6
{7}
н/о н/о +24.2 +18.4 70 +29 +29 душно 1018.3 1001.6
13 11.09 СВ 3-4
{7}
н/о н/о +23.8 +17.5 68 +28 +28 душно 1019.0 1002.3
14 11.09 СВ 3-5
{5}
н/о н/о +23.4 +16.4 65 +28 +28 душно 1019.5 1002.8
15 11.09 СВ 3
{9}
20 км 3/1 900 м
[Cu hum Ac lent Ci fib]
+23.5 +16.3 64 +27 +30 душно 1019.9 1003.2
16 11.09 В 2-3
{4}
н/о н/о +23.9 +16.9 65 +28 +28 душно 1020.2 1003.5
17 11.09 СВ 2-2
{3}
н/о н/о +22.2 +17.3 74 +27 +27 душно 1020.5 1003.7
18 11.09 ЮВ 2-3
{3}
н/о н/о +22.0 +16.7 72 +26 +26 душно 1020.7 1003.9 +20.6 +28.3
19 11.09 В 1-2
{3}
н/о н/о +21.6 +17.4 77 +26 +26 душно 1021.8 1004.9
20 11.09 СВ 1-1
{2}
н/о н/о +22.6 +15.4 64 +27 +27 душно 1022.0 1005.2
21 11.09 С 1-1
{1}
н/о н/о +21.5 +17.1 76 +25 +25 комфорт 1022.3 1005.4
22 11.09 В 2-2
{2}
н/о н/о +20.9 +17.1 79 +26 +26 душно 1022.4 1005.5
23 11.09 В 2-2
{3}
н/о н/о +20.7 +16.7 78 +25 +25 комфорт 1022.7 1005.8
00 12.09 В 1-2
{3}
н/о н/о +20.5 +17.3 82 +25 +25 комфорт 1023.4 1006.4
01 12.09 ЮВ 2-2
{2}
н/о н/о +20.5 +16.9 80 +25 +25 комфорт 1022.8 1005.9
02 12.09 В 2-3
{3}
н/о н/о +20.4 +16.2 77 +24 +24 комфорт 1022.9 1005.9
03 12.09 СВ 1-1
{2}
25 км ясно +21.2 +14.6 66 +24 +24 комфорт 1023.0 1006.1
04 12.09 В 2-3
{3}
н/о н/о +20.8 +12.2 58 +24 +24 комфорт 1023.3 1006.3
05 12.09 В 1-2
{3}
н/о н/о +21.3 +10.1 49 +23 +23 комфорт 1023.8 1006.8
06 12.09 З 1
{3}
н/о н/о +20.6 +14.5 68 +24 +24 комфорт 1024.4 1007.4 +20.2 +22.7
07 12.09 З 1-1
{2}
н/о н/о +20.2 +14.8 71 +24 +24 комфорт 1025.2 1008.2
08 12.09 З 1-1
{2}
н/о н/о +21.7 +14.3 63 +25 +25 комфорт 1026.3 1009.3
09 12.09 СВ 2-3
{3}
25 км 1/0
[Ci fib]
+23.3 +13.2 53 +26 +35 жарко 1027.1 1010.2
10 12.09 СВ 2-3
{3}
н/о н/о +23.3 +17.3 69 +29 +29 душно 1027.3 1010.4
11 12.09 С 2-3
{3}
н/о н/о +23.4 +18.5 74 +30 +30 очень
душно
1027.1 1010.3
12 12.09 СЗ 1-2
{3}
н/о н/о +25.3 +17.5 62 +29 +29 душно 1026.8 1010.1
13 12.09 С 1-2
{2}
н/о н/о +26.0 +15.7 53 +29 +29 душно 1026.5 1009.8
14 12.09 СВ 2-3
{3}
н/о н/о +25.4 +17.6 62 +30 +30 душно 1026.3 1009.6
15 12.09 В 3-4
{4}
н/о н/о +25.1 +19.7 72 +31 +31 очень
душно
1026.0 1009.3
16 12.09 В 3-4
{4}
н/о н/о +24.4 +19.5 74 +30 +30 очень
душно
1026.0 1009.2
17 12.09 В 3-4
{4}
н/о н/о +23.5 +17.7 70 +28 +28 душно 1025.9 1009.1
18 12.09 В 5
{8}
н/о н/о +22.8 +16.1 66 +27 +27 душно 1026.1 1009.2 +19.8 +26.6
19 12.09 В 3-3
{4}
н/о н/о +22.9 +15.5 63 +27 +27 душно 1026.0 1009.1
20 12.09 В 4-5
{5}
н/о н/о +22.7 +14.0 58 +26 +26 жарко 1025.7 1008.8
21 12.09 В 4-5
{5}
н/о н/о +23.2 +13.1 53 +26 +26 жарко 1025.7 1008.8
22 12.09 В 3-4
{5}
н/о н/о +23.5 +11.2 46 +25 +25 комфорт 1026.0 1009.1
23 12.09 В 4-5
{5}
н/о н/о +25.5 +8.0 33 +26 +26 жарко 1026.1 1009.3
00 13.09 ЮЗ 2-3
{5}
н/о н/о +22.6 +16.2 67 +27 +27 душно 1026.8 1009.9
01 13.09 З 2-2
{3}
н/о н/о +23.7 +12.7 50 +26 +26 жарко 1027.0 1010.1
02 13.09 штиль 0-1
{2}
н/о н/о +22.9 +13.4 55 +26 +26 жарко 1027.1 1010.2
03 13.09 ЮВ 2-2
{2}
25 км ясно +22.9 +11.6 49 +25 +25 комфорт 1026.8 1009.9
04 13.09 В 2-2
{2}
н/о н/о +22.5 +11.9 51 +25 +25 комфорт 1027.1 1010.2
05 13.09 В 3-3
{3}
н/о н/о +22.3 +11.1 49 +24 +24 комфорт 1027.0 1010.0
06 13.09 В 3
{7}
25 км ясно +22.1 +11.5 51 +24 +25 комфорт 1026.8 1009.8 +22.1 +25.7
07 13.09 В 4-5
{5}
н/о н/о +22.9 +11.0 47 +25 +25 комфорт 1026.8 1009.9
08 13.09 СВ 5-6
{6}
н/о н/о +25.1 +12.0 44 +27 +27 жарко 1026.5 1009.7
09 13.09 СВ 6-8
{8}
н/о н/о +25.1 +13.0 47 +27 +27 жарко 1026.2 1009.4
10 13.09 СВ 6-7
{8}
н/о н/о +25.9 +13.1 45 +28 +28 жарко 1026.3 1009.6
11 13.09 СВ 5-7
{7}
н/о н/о +26.1 +13.2 45 +28 +28 жарко 1026.1 1009.4
12 13.09 СВ 5-7
{8}
н/о н/о +25.7 +14.2 49 +28 +28 жарко 1026.2 1009.5
13 13.09 СВ 4-6
{7}
н/о н/о +25.6 +15.6 54 +29 +29 душно 1025.8 1009.1
14 13.09 СВ 3-6
{6}
н/о н/о +25.6 +16.7 58 +29 +29 душно 1025.5 1008.8
15 13.09 СВ 2-5
{6}
н/о н/о +25.2 +17.1 61 +29 +29 душно 1025.5 1008.8
16 13.09 В 2-4
{4}
н/о н/о +24.5 +18.0 67 +29 +29 душно 1025.4 1008.6
17 13.09 В 1-3
{5}
н/о н/о +23.9 +17.9 69 +28 +28 душно 1025.4 1008.6
18 13.09 СВ 1
{4}
25 км 1/0
[Ci fib]
+22.7 +18.9 79 +29 +29 очень
душно
1025.5 1008.6 +21.4 +26.6
19 13.09 З 2-3
{3}
н/о н/о +22.0 +18.4 80 +27 +27 душно 1025.6 1008.7
20 13.09 З 1-2
{2}
н/о н/о +23.0 +17.2 70 +28 +28 душно 1025.5 1008.7
21 13.09 СЗ 1-1
{2}
н/о н/о +21.7 +18.7 83 +27 +27 душно 1025.7 1008.8
22 13.09 З 1-2
{2}
н/о н/о +21.6 +17.8 79 +26 +26 душно 1025.7 1008.8
23 13.09 З 1-1
{2}
н/о н/о +21.6 +17.4 77 +26 +26 душно 1025.4 1008.5
00 14.09 З 1-2
{2}
н/о н/о +21.9 +16.2 70 +26 +26 душно 1025.3 1008.4
01 14.09 ЮВ 1-1
{2}
н/о н/о +21.6 +13.5 60 +24 +24 комфорт 1024.9 1008.0
02 14.09 СВ 1-1
{2}
н/о н/о +22.1 +14.7 63 +25 +25 комфорт 1024.6 1007.7
03 14.09 В 1-1
{1}
н/о н/о +22.6 +11.3 49 +25 +25 комфорт 1024.7 1007.8
04 14.09 ЮЗ 1-2
{2}
н/о н/о +23.8 +12.1 48 +26 +26 жарко 1024.9 1008.1
05 14.09 В 1-2
{2}
н/о н/о +22.2 +14.3 61 +25 +25 комфорт 1025.2 1008.3
06 14.09 СВ 1
{2}
н/о н/о +22.0 +14.4 62 +25 +25 комфорт 1025.8 1008.9 +21.2 +24.1
07 14.09 ЮВ 1-1
{1}
н/о н/о +23.7 +13.3 52 +26 +26 жарко 1025.7 1008.9
08 14.09 В 2-2
{2}
н/о н/о +25.0 +14.8 53 +28 +28 жарко 1025.7 1008.9
09 14.09 СВ 2-3
{3}
н/о н/о +25.9 +13.4 46 +28 +28 жарко 1025.4 1008.7
10 14.09 СВ 4-6
{6}
н/о н/о +26.1 +14.5 49 +29 +29 жарко 1024.7 1008.0
11 14.09 СВ 5-7
{7}
н/о н/о +27.4 +13.7 43 +29 +29 жарко 1024.0 1007.4
12 14.09 СВ 5-6
{7}
н/о н/о +25.2 +17.4 62 +29 +29 душно 1023.8 1007.1
13 14.09 СВ 4-6
{6}
н/о н/о +29.9 +12.8 35 +31 +31 жарко 1023.0 1006.5
14 14.09 СВ 5-8
{8}
н/о н/о +25.9 +15.0 51 +29 +29 душно 1022.7 1006.0
15 14.09 СВ 3-6
{8}
н/о н/о +25.9 +15.3 52 +29 +29 душно 1022.9 1006.2
16 14.09 СВ 4-6
{6}
н/о н/о +25.7 +16.0 55 +29 +29 душно 1022.4 1005.7
17 14.09 СВ 1-1
{5}
н/о н/о +26.1 +15.2 51 +29 +29 жарко 1022.4 1005.8
18 14.09 З 2
{6}
30 км 3/0
[Ci fib]
+24.6 +15.8 58 +28 +28 душно 1023.1 1006.4 +22.1 +29.9
19 14.09 З 2-3
{3}
н/о н/о +23.7 +16.5 64 +27 +27 жарко 1023.8 1007.0
20 14.09 В 1-2
{4}
н/о н/о +22.8 +15.1 62 +27 +27 душно 1024.2 1007.3
21 14.09 СВ 1-1
{2}
н/о н/о +22.9 +17.6 72 +28 +28 душно 1024.0 1007.2
22 14.09 В 2-2
{2}
н/о н/о +22.8 +16.6 68 +27 +27 душно 1023.6 1006.8
23 14.09 В 2-3
{3}
н/о н/о +23.1 +14.1 57 +27 +27 душно 1023.2 1006.4
00 15.09 ЮЗ 1-2
{3}
н/о н/о +22.3 +15.6 66 +26 +26 жарко 1023.5 1006.6
01 15.09 ЮЗ 1-1
{2}
н/о н/о +21.8 +16.1 70 +26 +26 душно 1023.1 1006.2
02 15.09 З 1-2
{2}
н/о н/о +21.7 +16.0 70 +25 +25 комфорт 1022.9 1006.0
03 15.09 З 2-3
{3}
н/о н/о +21.8 +15.4 67 +25 +25 комфорт 1023.0 1006.1
04 15.09 ЮЗ 2-2
{2}
н/о н/о +21.9 +16.6 72 +26 +26 душно 1022.6 1005.7
05 15.09 З 3-4
{4}
н/о н/о +21.2 +18.0 82 +25 +25 комфорт 1023.1 1006.2
06 15.09 З 2
{7}
н/о н/о +21.7 +17.5 77 +26 +26 душно 1023.6 1006.7 +21.2 +24.7
07 15.09 В 1-1
{2}
н/о н/о +22.4 +18.0 76 +27 +27 душно 1023.8 1007.0
08 15.09 СВ 1-2
{2}
н/о н/о +23.3 +18.0 72 +29 +29 душно 1023.8 1007.0
09 15.09 З 2
{5}
20 км 3/0
[Cs]
+23.9 +17.9 69 +28 +36 душно 1024.1 1007.3
10 15.09 С 1-2
{2}
н/о н/о +23.9 +19.2 75 +29 +29 душно 1023.6 1006.8
11 15.09 СЗ 2-3
{3}
н/о н/о +25.0 +20.0 74 +31 +31 очень
душно
1023.3 1006.6
12 15.09 З 3
{9}
20 км 6/0 2000 м
[Ac lent Cs]
+24.6 +20.3 77 +30 +36 очень
душно
1023.0 1006.3
13 15.09 З 3-4
{5}
н/о н/о +25.4 +21.1 77 +32 +32 очень
душно
1022.7 1006.1
14 15.09 З 2-3
{4}
н/о н/о +25.7 +20.3 72 +32 +32 очень
душно
1022.3 1005.7
15 15.09 З 2-3
{3}
н/о н/о +24.2 +19.7 76 +29 +29 душно 1022.0 1005.3
16 15.09 З 2-4
{4}
н/о н/о +24.3 +18.5 70 +29 +29 душно 1021.8 1005.1
17 15.09 З 1-2
{3}
н/о н/о +23.5 +17.3 68 +27 +27 душно 1021.4 1004.6
18 15.09 ЮВ 1
{2}
н/о н/о +22.9 +15.5 63 +27 +27 душно 1021.3 1004.5 +21.7 +26.5
19 15.09 ЮВ 2-2
{2}
н/о н/о +22.4 +16.4 69 +27 +27 душно 1021.2 1004.4
20 15.09 ЮВ 1-2
{3}
н/о н/о +22.7 +16.9 70 +27 +27 душно 1021.0 1004.2
21 15.09 СВ 1-1
{2}
н/о н/о +22.7 +16.3 67 +27 +27 душно 1020.6 1003.8
22 15.09 СВ 1-1
{1}
н/о н/о +22.4 +16.7 70 +27 +27 душно 1020.5 1003.7
23 15.09 В 1-2
{2}
н/о н/о +22.3 +16.6 70 +27 +27 душно 1020.5 1003.7
00 16.09 ЮВ 1-2
{2}
н/о н/о +22.3 +16.3 69 +27 +27 душно 1020.3 1003.5
01 16.09 З 1-2
{2}
н/о н/о +21.7 +17.5 77 +26 +26 душно 1020.1 1003.3
02 16.09 З 1-2
{2}
н/о н/о +21.5 +17.5 78 +26 +26 душно 1019.7 1002.9
03 16.09 З 1-1
{1}
н/о н/о +21.6 +17.4 77 +26 +26 душно 1019.4 1002.6
04 16.09 З 1-1
{1}
н/о н/о +21.7 +16.4 72 +26 +26 душно 1019.1 1002.3
05 16.09 СЗ 1-1
{1}
н/о н/о +21.8 +17.8 78 +26 +26 душно 1019.1 1002.3
06 16.09 СЗ 1
{2}
н/о н/о +22.3 +16.1 68 +26 +26 жарко 1019.2 1002.4 +21.4 +22.9
07 16.09 ЮЗ 1-1
{1}
н/о н/о +22.8 +15.9 65 +27 +27 душно 1019.3 1002.5
08 16.09 СЗ 1-1
{1}
н/о н/о +23.1 +15.2 61 +27 +27 душно 1019.5 1002.7
09 16.09 З 1-2
{2}
н/о н/о +23.8 +16.8 65 +27 +27 жарко 1019.6 1002.9
10 16.09 З 2-3
{3}
н/о н/о +24.6 +19.7 74 +30 +30 очень
душно
1019.5 1002.9
11 16.09 З 2-3
{4}
н/о н/о +25.0 +19.1 70 +30 +30 душно 1019.1 1002.5
12 16.09 СЗ 2-3
{3}
н/о н/о +25.5 +19.6 70 +31 +31 очень
душно
1018.5 1001.9
13 16.09 СЗ 2-3
{3}
н/о н/о +25.5 +19.6 70 +31 +31 очень
душно
1018.0 1001.4
14 16.09 СЗ 1-2
{3}
н/о н/о +25.8 +16.1 55 +29 +29 душно 1017.3 1000.7
15 16.09 СЗ 1-2
{3}
25 км ясно +25.9 +18.6 64 +31 +36 очень
душно
1017.1 1000.6
16 16.09 З 1-2
{2}
н/о н/о +25.7 +17.4 60 +30 +30 душно 1016.8 1000.2
17 16.09 З 1-2
{2}
н/о н/о +24.4 +18.6 70 +29 +29 душно 1016.8 1000.2
18 16.09 З 1-2
{2}
н/о н/о +22.6 +18.8 79 +28 +28 душно 1017.1 1000.4 +21.9 +26.2
19 16.09 З 1-1
{2}
н/о н/о +22.4 +19.4 83 +28 +28 душно 1017.3 1000.6
20 16.09 З 2-2
{2}
н/о н/о +22.1 +18.3 79 +27 +27 душно 1017.6 1000.8
21 16.09 З 2-3
{3}
н/о н/о +21.6 +18.6 83 +26 +26 душно 1018.0 1001.2
22 16.09 ЮЗ 3-4
{4}
н/о н/о +21.7 +17.9 79 +26 +26 душно 1017.8 1001.0
23 16.09 З 2-3
{4}
н/о н/о +21.5 +17.1 76 +25 +25 комфорт 1017.5 1000.7
00 17.09 ЮЗ 2-3
{3}
н/о н/о +21.3 +17.3 78 +25 +25 комфорт 1017.6 1000.8
01 17.09 ЮЗ 2-3
{3}
н/о н/о +22.3 +12.0 52 +25 +25 комфорт 1017.1 1000.3
02 17.09 Ю 1-2
{2}
н/о н/о +22.9 +10.7 46 +25 +25 комфорт 1016.5 999.8
03 17.09 Ю 2-2
{2}
н/о н/о +23.7 +9.7 41 +25 +25 комфорт 1015.9 999.2
04 17.09 З 1-1
{2}
н/о н/о +23.6 +9.6 41 +25 +25 комфорт 1015.7 999.0
05 17.09 С 1-1
{1}
н/о н/о +23.8 +9.4 40 +25 +25 комфорт 1015.8 999.1
06 17.09 ЮЗ 1
{2}
н/о н/о +23.7 +9.7 41 +25 +25 комфорт 1015.9 999.2 +21.2 +23.8
07 17.09 З 1-2
{2}
н/о н/о +23.3 +10.7 45 +25 +25 комфорт 1016.0 999.3
08 17.09 З 2-3
{3}
н/о н/о +23.3 +15.9 63 +28 +28 душно 1016.5 999.8
09 17.09 З 3-4
{4}
35 км ясно +24.3 +18.2 69 +29 +36 душно 1016.8 1000.2
10 17.09 З 3-4
{5}
н/о н/о +24.7 +19.3 72 +30 +30 очень
душно
1016.6 1000.0
11 17.09 З 3-5
{5}
н/о н/о +25.1 +18.5 67 +30 +30 душно 1016.3 999.7
12 17.09 З 3-4
{5}
35 км ясно +25.2 +18.4 66 +30 +40 душно 1016.1 999.5
13 17.09 З 3-5
{5}
н/о н/о +25.4 +20.2 73 +31 +31 очень
душно
1015.7 999.2

 

Местоположение метеостанции Л’Иль-Рус (Франция): широта 42.63 долгота 8.92 высота над уровнем моря 153 м.

В архиве по умолчанию представлена погода в Л’Иль-Русе за последнюю неделю. Архивные данные за месяц целиком и за предыдущие месяцы, начиная с января 2011 года, Вы можете получить, выбрав интересующий диапазон дат из раскрывающегося списка и нажав кнопку "Ввод!".


*Определитесь, кто Вы:
робот инопланетянин человек

Внимание! Время в таблицах - всемирное. Для получения местного времени необходимо прибавить поправку, которая равна 1 ч.

Смотрите также архив погоды в соседних городах и на ближайших метеорологических станциях:

Погода в Кальви (Франция) (15 км)
Погода в Бастии (Франция) (47 км)
Погода на Мысе Сагро (Франция) (50 км)
Погода на Мысе Корсика (Франция) (54 км)
Погода в Алистро (Франция) (64 км)
Погода в Аяччо (Франция) (80 км)
Погода в Ла Парате (Франция) (83 км)
Погода в Соленцаре (Франция) (88 км)
Погода на Mонте Каламита (Италия) (122 км)
Погода в Фигари (Франция) (127 км)

Пояснения к столбцам:

Ветер - указаны скорость ветра в м/с - средняя за 10 мин, порывы в срок и между сроками (в фигурных скобках) и направление, откуда дует ветер: С - северный, СВ - северо-восточный, В - восточный, ЮВ - юго-восточный, Ю - южный, ЮЗ - юго-западный, З - западный, СЗ - северо-западный.
Видимость - горизонтальная дальность видимости в метрах или километрах. При видимости от 1 до 10 км при отсутствии осадков обычно наблюдается дымка, при ухудшении видимости до 1 км и менее - туман. В сухую погоду видимость может ухудшаться дымом, пылью или мглою.
Явления - указаны атмосферные явления, наблюдавшиеся в срок или в последний час перед сроком; фигурными скобками обозначены явления, наблюдавшиеся между сроками (за 1-3 часа до срока); квадратными скобками обозначены град или гололедные отложения с указанием их диаметра в мм.
Облачность - указаны через наклонную черту общая и нижняя облачность в баллах и высота нижней границы облаков в метрах; квадратными скобками обозначены формы облаков: Ci - перистые, Cs - перисто-слоистые, Cc - перисто-кучевые, Ac - высококучевые, As - высокослоистые, Sc - слоисто-кучевые, Ns - слоисто-дождевые, Cu - кучевые, Cb - кучево-дождевые. Подробнее классификацию облаков см. в Атласе облаков (PDF).
T - Температура воздуха - температура, измеренная на высоте 2 м над землей.
Td - Температура точки росы - температура, при понижении до которой содержащийся в воздухе водяной пар достигнет насыщения.
f - Относительная влажность воздуха - влажноcть воздуха, измеренная на высоте 2 м над землей.
Te - Эффективная температура - температура, которую ощущает одетый по сезону человек в тени. Характеристика душности погоды. При расчете учитывается влияние влажности воздуха и скорости ветра на теплоощущения человека.
Tes - Эффективная температура на солнце - температура, которую ощущает человек, с поправкой на солнечный нагрев. Характеристика знойности погоды. Зависит от высоты солнца над горизонтом, облачности и скорости ветра. Ночью, в пасмурную погоду, а также при ветре 12 м/с и более поправка равна нулю.
P - Атмосферное давление - приведенное к уровню моря атмосферное давление.
Po - Атмосферное давление - измеренное на уровне метеостанции атмосферное давление.
Tmin - Минимальная температура - минимум температуры воздуха на высоте 2 м над землей.
Tmax - Максимальная температура - максимум температуры воздуха на высоте 2 м над землей.
R - Количество осадков - Количество выпавших осадков за период времени, мм. При наведении курсора мыши на число - период времени, за который выпало указанное количество осадков.
R24 - Количество осадков - Количество выпавших осадков за 24 часа, мм.
S - Снежный покров - Высота снежного покрова, см. При наведении курсора мыши на число - состояние снежного покрова и степень покрытия местности в баллах.